Weather History for Hebron, NE

Change the Weather History Date:

Saturday, May 18, 2013

  Actual Average Record
Temperature  
Mean Temperature 74 °F -  
Max Temperature 86 °F 73 °F 92 °F (1964)
Min Temperature 62 °F 52 °F 42 °F (1952)
Cooling Degree Days 8    
Growing Degree Days 24 (Base 50)    
Moisture  
Dew Point 64 °F    
Average Humidity 76    
Maximum Humidity 89    
Minimum Humidity 56    
Precipitation  
Precipitation 0.62 in - - ()
Sea Level Pressure  
Sea Level Pressure 29.80 in    
Wind  
Wind Speed 8 mph (SE)    
Max Wind Speed 22 mph    
Max Gust Speed 29 mph    
Visibility 8 miles    
Events Rain , Thunderstorm    
Averages and records for this station are not official NWS values.
T = Trace of Precipitation, MM = Missing Value Source: NWS Daily Summary

Daily Weather History Graph

Daily Weather History Graph

Search for Another Location

Airport:

Trip Planner

Search our weather history database for the weather conditions in past years. The results will help you decide how hot, cold, wet, or windy it might be!

Date:

Astronomy

May. 18, 2013 Rise Set
Actual Time 6:11 AM CDT 8:42 PM CDT
Civil Twilight 5:40 AM CDT 9:13 PM CDT
Nautical Twilight 5:02 AM CDT 9:52 PM CDT
Astronomical Twilight 4:19 AM CDT 10:35 PM CDT
Moon 1:46 PM CDT (5/18) 2:05 AM CDT (5/18)
Length of Visible Light 15h 32m
Length of Day
14h 30m
First Quarter, 55% of the Moon is Illuminated
May 18
First Quarter
May 24
Full
May 31
Last Quarter
Jun 8
New
Jun 16
First Quarter

Hourly Weather History & Observations

Time (CDT) Temp. Heat Index Dew Point Humidity Pressure Visibility Wind Dir Wind Speed Gust Speed Precip Events Conditions
12:15 AM 66.2 °F - 59.9 °F 80% 29.88 in 10.0 mi SE 5.8 mph - N/A   Clear
12:35 AM 66.4 °F - 59.9 °F 80% 29.89 in 10.0 mi SE 5.8 mph - N/A   Clear
12:55 AM 65.7 °F - 59.9 °F 82% 29.89 in 10.0 mi SE 5.8 mph - N/A   Clear
1:15 AM 66.2 °F - 60.3 °F 81% 29.89 in 10.0 mi SSE 6.9 mph - N/A   Clear
1:35 AM 65.5 °F - 60.1 °F 83% 29.88 in 10.0 mi SE 6.9 mph - N/A   Clear
1:55 AM 65.8 °F - 60.3 °F 82% 29.88 in 10.0 mi SSE 9.2 mph - N/A   Clear
2:15 AM 65.8 °F - 60.1 °F 82% 29.88 in 10.0 mi SSE 5.8 mph - N/A   Clear
2:35 AM 64.8 °F - 59.9 °F 84% 29.88 in 10.0 mi SSE 5.8 mph - N/A   Clear
2:55 AM 64.4 °F - 59.9 °F 85% 29.87 in 10.0 mi SE 4.6 mph - N/A   Clear
3:15 AM 63.1 °F - 59.2 °F 87% 29.86 in 10.0 mi SE 4.6 mph - N/A   Clear
3:35 AM 63.7 °F - 59.4 °F 86% 29.86 in 10.0 mi SE 4.6 mph - N/A   Clear
3:55 AM 63.1 °F - 59.0 °F 86% 29.85 in 10.0 mi SE 4.6 mph - N/A   Clear
4:15 AM 63.1 °F - 59.4 °F 87% 29.86 in 10.0 mi SE 4.6 mph - N/A   Clear
4:35 AM 63.5 °F - 59.5 °F 87% 29.86 in 10.0 mi SSE 4.6 mph - N/A   Scattered Clouds
4:55 AM 63.1 °F - 59.4 °F 87% 29.85 in 10.0 mi SE 5.8 mph - N/A   Scattered Clouds
5:15 AM 62.6 °F - 59.2 °F 89% 29.84 in 7.0 mi SSE 5.8 mph - N/A   Clear
5:35 AM 62.6 °F - 59.2 °F 89% 29.84 in 7.0 mi SE 5.8 mph - N/A   Clear
5:55 AM 62.4 °F - 59.0 °F 89% 29.84 in 7.0 mi SE 6.9 mph - N/A   Clear
6:15 AM 62.6 °F - 59.4 °F 89% 29.83 in 7.0 mi ESE 4.6 mph - N/A   Clear
6:35 AM 62.6 °F - 59.4 °F 89% 29.83 in 5.0 mi SE 4.6 mph - N/A   Clear
6:55 AM 64.4 °F - 61.0 °F 89% 29.83 in 7.0 mi SE 5.8 mph - N/A   Mostly Cloudy
7:15 AM 65.5 °F - 61.7 °F 88% 29.84 in 7.0 mi ESE 5.8 mph - N/A   Overcast
7:35 AM 66.4 °F - 61.9 °F 85% 29.84 in 7.0 mi ESE 5.8 mph - N/A   Mostly Cloudy
7:55 AM 67.5 °F - 62.2 °F 83% 29.85 in 7.0 mi ESE 4.6 mph - N/A   Mostly Cloudy
8:15 AM 67.6 °F - 62.4 °F 83% 29.86 in 7.0 mi SE 4.6 mph - N/A   Overcast
8:35 AM 68.0 °F - 62.8 °F 83% 29.86 in 7.0 mi ESE 5.8 mph - N/A   Overcast
8:55 AM 68.9 °F - 63.3 °F 82% 29.87 in 7.0 mi ESE 3.5 mph - N/A   Overcast
9:15 AM 69.8 °F - 63.9 °F 81% 29.86 in 7.0 mi SE 5.8 mph - N/A   Overcast
9:35 AM 70.7 °F - 64.4 °F 80% 29.85 in 7.0 mi SE 10.4 mph - N/A   Overcast
9:55 AM 72.1 °F - 64.8 °F 78% 29.84 in 7.0 mi SE 11.5 mph - N/A   Overcast
10:15 AM 73.4 °F - 65.3 °F 76% 29.83 in 7.0 mi SSE 10.4 mph - N/A   Overcast
10:35 AM 73.9 °F - 66.0 °F 76% 29.83 in 7.0 mi SSE 9.2 mph 16.1 mph N/A   Overcast
10:55 AM 74.3 °F - 66.4 °F 76% 29.83 in 7.0 mi SSE 10.4 mph - N/A   Overcast
11:15 AM 75.2 °F - 66.7 °F 75% 29.83 in 7.0 mi SE 10.4 mph - N/A   Overcast
11:35 AM 75.2 °F - 66.9 °F 75% 29.83 in 7.0 mi SE 10.4 mph - N/A   Overcast
11:55 AM 75.4 °F - 66.9 °F 75% 29.83 in 7.0 mi ESE 9.2 mph - N/A   Overcast
12:15 PM 76.1 °F - 66.9 °F 73% 29.82 in 7.0 mi SE 9.2 mph - N/A   Overcast
12:35 PM 76.3 °F - 67.1 °F 73% 29.81 in 7.0 mi ESE 11.5 mph - N/A   Overcast
12:55 PM 76.5 °F - 66.9 °F 72% 29.81 in 7.0 mi SE 12.7 mph - N/A   Overcast
1:15 PM 77.0 °F - 67.6 °F 73% 29.81 in 7.0 mi SSE 10.4 mph - N/A   Overcast
1:35 PM 79.2 °F - 67.8 °F 68% 29.80 in 7.0 mi SSE 18.4 mph - N/A   Overcast
2:15 PM 78.4 °F - 67.6 °F 69% 29.81 in 7.0 mi SSE 13.8 mph - N/A   Overcast
2:35 PM 78.1 °F - 68.4 °F 72% 29.81 in 7.0 mi South 16.1 mph 19.6 mph N/A   Overcast
2:55 PM 78.6 °F - 69.1 °F 72% 29.79 in 5.0 mi SSE 15.0 mph 23.0 mph N/A   Haze
3:15 PM 80.6 °F 83.4 °F 68.2 °F 66% 29.78 in 7.0 mi SSE 15.0 mph 19.6 mph N/A   Scattered Clouds
3:35 PM 80.4 °F 83.0 °F 67.5 °F 65% 29.76 in 7.0 mi SE 10.4 mph - N/A   Clear
3:55 PM 83.5 °F 86.7 °F 68.4 °F 60% 29.76 in 10.0 mi SE 17.3 mph 23.0 mph N/A   Clear
4:15 PM 84.7 °F 87.9 °F 67.8 °F 57% 29.75 in 7.0 mi SE 16.1 mph 23.0 mph N/A   Scattered Clouds
4:35 PM 84.0 °F 86.8 °F 67.1 °F 57% 29.74 in 7.0 mi SSE 19.6 mph - N/A   Scattered Clouds
4:55 PM 84.7 °F 87.6 °F 67.6 °F 56% 29.73 in 7.0 mi SE 16.1 mph 20.7 mph N/A   Scattered Clouds
5:15 PM 85.1 °F 88.2 °F 67.8 °F 56% 29.71 in 10.0 mi ESE 16.1 mph 20.7 mph N/A   Scattered Clouds
5:35 PM 84.2 °F 87.1 °F 67.6 °F 57% 29.69 in 7.0 mi SE 17.3 mph 21.9 mph N/A   Scattered Clouds
5:55 PM 84.6 °F 87.6 °F 67.6 °F 57% 29.68 in 7.0 mi ESE 16.1 mph 23.0 mph N/A   Clear
6:15 PM 82.9 °F 85.8 °F 67.6 °F 60% 29.69 in 10.0 mi SE 17.3 mph 24.2 mph N/A   Clear
6:35 PM 82.0 °F 84.9 °F 67.6 °F 62% 29.69 in 7.0 mi SE 16.1 mph 19.6 mph N/A   Clear
6:55 PM 82.0 °F 84.9 °F 67.6 °F 62% 29.68 in 7.0 mi SE 16.1 mph 20.7 mph N/A   Clear
7:15 PM 81.7 °F 84.5 °F 67.8 °F 63% 29.70 in 7.0 mi SSE 13.8 mph 21.9 mph N/A   Scattered Clouds
7:35 PM 81.0 °F 83.8 °F 68.0 °F 65% 29.70 in 7.0 mi SE 16.1 mph 19.6 mph N/A   Scattered Clouds
7:55 PM 80.1 °F 82.7 °F 68.0 °F 67% 29.70 in 7.0 mi SE 16.1 mph - N/A Thunderstorm Clear
8:15 PM 79.3 °F - 68.4 °F 69% 29.70 in 7.0 mi SSE 11.5 mph - N/A   Scattered Clouds
8:35 PM 78.8 °F - 68.9 °F 72% 29.71 in 7.0 mi South 5.8 mph 16.1 mph N/A Thunderstorm Thunderstorm
8:55 PM 77.9 °F - 68.5 °F 73% 29.74 in 7.0 mi South 6.9 mph - N/A Thunderstorm Scattered Clouds
9:15 PM 77.4 °F - 68.5 °F 74% 29.76 in 5.0 mi WSW 8.1 mph - N/A Thunderstorm Unknown
9:35 PM 70.0 °F - 58.8 °F 68% 29.78 in 7.0 mi West 9.2 mph 27.6 mph N/A Rain , Thunderstorm Thunderstorms and Rain
9:55 PM 67.8 °F - 57.4 °F 69% 29.77 in 10.0 mi SSW 3.5 mph - 0.02 in Rain , Thunderstorm Thunderstorms and Rain
10:15 PM 66.0 °F - 58.3 °F 76% 29.77 in 2.5 mi WNW 6.9 mph - 0.19 in Rain , Thunderstorm Heavy Thunderstorms and Rain
10:35 PM 65.3 °F - 59.4 °F 81% 29.73 in 7.0 mi NW 3.5 mph 9.2 mph 0.40 in Rain , Thunderstorm Light Thunderstorms and Rain
10:55 PM 65.5 °F - 59.4 °F 81% 29.76 in 5.0 mi North 3.5 mph - 0.45 in Rain , Thunderstorm Heavy Thunderstorms and Rain
11:15 PM 66.6 °F - 58.6 °F 76% 29.74 in 4.0 mi West 21.9 mph 28.8 mph 0.08 in Rain , Thunderstorm Heavy Thunderstorms and Rain
11:35 PM 64.0 °F - 60.4 °F 88% 29.76 in 7.0 mi SSW 3.5 mph 16.1 mph 0.13 in Rain , Thunderstorm Thunderstorms and Rain
11:55 PM 64.0 °F - 60.8 °F 89% 29.78 in 10.0 mi SSE 11.5 mph - 0.15 in Rain , Thunderstorm Light Thunderstorms and Rain